Wind_Speed
18 18 18 18 18 18 18 18 18 19 19 20 20 19 19 20 19 19 19 19 18 17 17 17 17 17 18 18 17 17 15 15 14 13 12 11 10 10 10 10 9 9 10 10 10 10 11 12 13 15 15 16 16 17 18 19 20 20 21 22 22 22 21 21 20 20 20 20 20 20 20 20 20 20 20 20 20 20 20 20 20 20 20 19 19
18 17 18 18 18 18 18 18 18 18 19 19 19 18 18 18 18 18 18 18 18 18 17 17 18 17 18 17 16 15 14 13 13 12 11 10 10 10 10 9 9 9 9 10 10 10 11 12 13 15 15 16 16 17 18 19 20 20 21 22 21 21 20 20 19 19 19 19 19 19 19 19 20 20 20 20 20 20 20 20 20 20 20 20 20
17 17 17 17 17 17 18 18 18 18 18 18 18 18 18 18 18 18 18 18 18 18 18 18 18 17 17 17 15 14 13 12 11 10 10 10 10 9 9 8 9 9 9 9 9 10 11 12 13 14 15 15 16 17 18 19 20 20 21 21 20 19 19 19 18 18 17 18 18 18 18 19 19 20 20 20 19 19 19 20 20 20 20 20 19
16 16 16 16 16 17 17 17 18 18 18 18 18 18 18 18 18 18 18 18 18 18 18 18 18 18 16 15 14 13 12 11 10 9 9 9 9 9 8 8 8 9 9 9 9 10 11 12 13 14 15 15 16 17 18 19 19 20 20 19 19 18 17 17 17 16 16 16 17 17 17 18 18 19 19 19 19 18 19 19 19 19 19 19 19
16 16 16 15 15 15 16 16 17 17 17 17 17 17 16 16 16 16 17 17 18 18 18 18 18 17 16 14 13 12 11 11 9 9 8 9 8 8 8 7 7 8 9 9 10 10 11 12 13 14 14 15 16 17 17 18 19 19 18 18 17 16 16 16 15 15 15 15 15 16 16 17 17 18 18 18 18 18 18 18 18 18 18 18 18
16 15 15 15 15 15 15 15 16 16 16 16 16 15 14 14 14 15 15 16 17 18 18 17 17 16 15 13 12 11 11 10 9 9 9 8 8 7 7 7 7 8 9 10 10 11 12 13 14 14 14 15 15 16 17 18 18 18 17 16 15 15 14 14 14 14 14 14 15 15 16 16 16 17 17 17 17 17 17 18 18 18 18 17 17
15 14 14 14 14 14 14 14 15 15 15 14 14 13 13 13 13 13 14 14 15 16 16 16 15 15 14 13 12 11 10 9 9 9 9 8 7 7 7 8 8 9 10 11 11 11 12 13 14 14 14 14 15 15 16 17 17 16 16 15 14 13 13 13 13 14 14 14 14 15 15 16 16 16 17 17 17 17 18 18 18 18 18 17 16
14 14 14 14 13 13 13 13 14 14 14 13 13 12 12 12 12 13 13 13 14 15 15 14 14 13 13 12 11 10 10 9 9 9 9 8 7 8 8 9 9 10 10 12 12 12 12 13 14 14 14 14 14 14 15 16 16 15 14 13 13 12 12 12 13 13 13 14 14 15 15 15 16 16 16 16 17 17 18 18 18 18 18 17 16
13 13 13 13 13 13 13 13 13 13 13 12 12 11 11 11 12 12 12 12 13 13 14 13 13 12 12 11 10 9 9 8 9 9 9 8 8 8 9 10 10 10 10 12 13 12 12 13 13 13 13 13 13 14 14 14 14 14 13 12 12 12 11 11 12 12 13 13 13 14 14 14 15 15 15 16 16 17 17 17 17 17 17 16 16
11 11 11 11 12 12 12 12 12 12 12 12 11 11 10 11 11 10 11 11 12 12 12 12 12 11 11 10 9 8 8 8 8 9 8 8 9 9 10 10 11 10 10 12 13 12 12 12 13 12 12 12 12 13 13 13 13 12 11 11 10 10 10 10 10 11 12 12 12 12 13 13 13 14 14 14 15 15 16 16 16 16 15 15 15
10 10 10 10 10 11 11 10 10 11 11 11 10 10 9 10 10 9 9 10 11 11 11 11 11 11 10 10 9 8 7 7 8 8 8 8 9 10 10 11 11 11 10 11 13 13 12 12 12 12 11 11 11 11 11 11 11 10 9 9 8 8 8 9 9 10 10 11 11 11 11 12 12 12 12 13 13 14 14 15 15 15 15 15 15
10 9 9 9 9 9 9 9 9 9 9 9 9 9 9 9 9 9 9 9 10 10 10 10 10 10 10 10 9 8 8 8 8 7 8 8 10 10 11 11 11 11 11 12 13 13 13 12 11 11 10 10 9 9 10 9 9 8 7 6 6 6 6 7 8 9 9 9 9 10 10 10 10 10 11 11 12 13 14 14 15 15 15 15 15
10 9 9 8 8 8 8 8 8 8 8 8 8 9 10 10 10 10 9 9 9 9 10 10 10 10 9 9 9 9 9 9 8 7 7 9 10 11 11 11 10 11 11 12 13 13 13 12 11 11 10 9 9 9 8 8 7 7 6 5 5 4 5 6 7 7 8 8 8 8 9 9 10 10 11 11 12 13 14 14 15 15 15 16 16
9 9 8 8 8 7 7 7 8 8 8 8 9 9 10 11 11 10 10 9 9 9 9 9 10 10 9 9 8 8 9 9 8 8 8 8 10 11 11 11 10 10 11 12 12 12 12 12 11 10 10 9 9 8 8 7 7 6 5 4 4 3 3 4 5 6 6 7 7 7 7 8 10 11 11 12 13 14 14 15 15 16 16 16 16
8 8 8 8 8 8 7 7 7 8 8 8 9 9 10 10 11 10 10 10 9 9 9 9 9 9 9 9 9 8 9 10 8 8 8 8 9 10 10 11 11 10 10 11 11 11 11 11 11 10 9 9 9 8 8 7 6 6 5 5 4 3 3 3 3 4 5 5 5 6 6 8 9 10 11 11 13 14 14 15 16 16 16 16 16
8 8 8 8 8 8 7 7 7 7 8 8 9 9 9 9 10 10 10 10 9 9 9 9 9 8 8 8 9 9 9 9 8 8 9 8 9 10 8 10 11 11 11 9 10 10 10 11 10 9 9 9 8 8 8 7 6 6 6 5 4 3 3 2 2 3 4 4 4 5 6 8 9 10 10 11 12 13 14 15 16 16 17 16 15
8 8 8 8 8 8 7 7 7 7 7 8 8 8 9 9 9 9 9 9 9 9 8 9 9 8 7 7 7 8 9 9 8 8 8 7 9 10 8 9 9 10 11 10 10 10 10 11 10 9 9 8 8 8 7 7 6 6 6 5 5 4 3 2 1 2 3 4 4 5 6 7 8 9 10 11 12 13 14 15 16 17 17 16 15
8 8 8 8 8 8 8 7 7 7 7 8 8 8 8 8 8 8 8 8 9 8 8 8 8 8 8 7 7 7 7 8 8 8 7 6 8 9 9 8 8 8 10 10 9 9 10 11 11 10 9 8 7 7 6 6 6 6 6 5 4 3 2 1 0 1 2 3 4 5 5 6 7 8 10 11 13 14 15 16 17 17 17 16 16
8 8 8 8 8 9 8 8 8 7 7 8 7 7 7 7 7 7 7 7 7 8 7 7 7 8 8 7 7 7 7 7 7 8 8 7 7 8 8 8 8 8 9 9 9 9 9 10 10 9 9 8 7 6 6 5 5 5 4 4 3 2 2 1 1 1 2 3 3 4 5 6 7 9 10 12 14 15 16 17 17 17 17 17 17
9 9 8 8 8 8 9 8 8 7 7 7 7 7 7 6 6 6 6 6 6 6 6 6 7 7 7 7 7 7 7 6 6 7 7 7 7 8 8 8 8 9 9 10 10 9 8 8 9 8 8 8 7 6 6 5 5 4 4 3 3 3 2 2 1 1 2 3 4 4 5 6 8 9 11 13 15 16 17 17 16 16 16 16 16
9 9 9 8 8 8 8 8 8 7 7 7 6 6 6 6 5 5 5 5 5 5 5 5 5 5 5 5 5 5 6 6 6 6 6 6 7 8 8 9 10 9 9 10 10 10 9 8 8 8 8 8 7 7 6 5 5 5 5 4 4 4 3 3 2 2 3 3 4 5 6 7 8 10 11 13 15 16 16 15 14 14 15 16 17
8 8 8 8 8 8 8 7 7 7 6 6 6 6 5 5 5 5 5 5 5 5 4 4 4 4 4 4 4 4 4 4 5 5 5 5 6 6 7 8 9 9 10 11 10 10 10 9 8 8 8 8 7 6 6 5 6 6 6 5 5 5 4 3 2 2 3 4 5 5 6 8 9 10 11 13 14 14 13 13 14 15 16 18 19
7 7 7 8 8 7 7 7 6 6 6 5 5 4 4 4 3 3 3 3 3 3 3 3 3 3 3 4 4 4 3 3 3 4 4 4 5 5 5 6 7 8 9 10 9 9 10 10 9 8 7 8 7 6 6 6 7 7 6 6 6 5 5 4 3 3 4 4 5 6 7 8 9 10 11 12 13 12 12 13 15 17 18 19 20
7 7 7 7 7 7 7 7 6 5 5 5 4 4 3 3 2 2 2 2 2 2 2 2 3 3 3 3 3 4 4 3 3 3 3 4 4 4 4 5 5 6 7 8 9 9 9 9 9 8 8 8 7 7 7 7 8 8 7 6 6 5 5 4 4 4 4 5 5 6 7 8 9 10 11 11 11 12 13 15 16 16 17 19 20
8 8 8 8 7 7 7 6 6 5 5 4 4 3 3 4 4 4 4 4 4 3 3 3 3 4 4 4 4 4 4 4 4 3 3 3 3 3 3 4 5 5 6 7 8 8 8 8 9 9 9 8 8 8 8 8 8 8 7 6 6 5 5 5 4 5 5 5 6 7 7 8 9 10 10 11 11 12 14 14 14 15 17 18 20
10 9 9 8 8 7 7 6 6 5 5 5 5 4 5 5 5 6 6 6 6 6 5 4 4 4 5 5 5 5 5 4 4 4 3 3 2 2 3 4 4 5 5 7 7 7 8 8 8 9 9 9 8 8 9 8 8 8 7 6 6 5 5 5 5 5 6 6 6 7 7 8 9 9 10 11 12 13 13 12 13 15 17 18 20
12 11 10 9 9 8 7 6 6 6 6 6 6 6 6 7 7 7 8 8 8 7 7 6 5 5 5 6 6 6 5 5 5 4 4 4 4 4 4 4 4 4 4 5 6 7 7 8 8 9 9 9 9 9 9 9 8 8 8 7 6 6 6 6 6 6 6 6 6 6 7 8 8 9 10 11 12 11 11 11 13 16 17 19 20
13 12 11 10 10 9 8 8 7 7 7 7 7 7 7 8 8 8 8 8 8 8 7 7 6 6 6 6 5 5 6 6 5 5 5 6 6 6 6 5 5 5 4 4 5 5 6 7 8 8 9 9 9 9 9 9 8 8 8 7 7 6 6 7 7 7 7 6 6 6 7 8 9 10 10 10 10 9 10 11 14 16 17 19 21
14 13 12 12 11 10 9 9 8 7 7 7 7 7 8 9 9 9 9 9 9 8 7 7 7 7 7 6 6 6 6 6 6 6 7 6 6 7 7 7 7 6 6 5 5 5 5 6 6 7 8 8 8 8 9 9 9 8 8 8 7 7 7 7 8 8 7 6 6 7 7 8 10 10 10 9 8 8 9 11 14 15 17 19 21
15 14 13 12 12 11 10 9 9 8 8 7 7 8 8 9 9 9 9 9 9 8 7 7 7 7 7 7 7 7 7 7 8 8 8 8 7 7 7 7 8 7 7 7 6 6 6 6 6 6 7 7 8 8 9 8 8 8 8 8 8 8 8 8 8 8 8 7 7 7 7 9 11 11 9 8 7 8 9 11 13 15 16 18 20
16 15 14 13 13 12 11 10 10 9 8 8 8 8 8 8 8 8 7 7 7 7 7 6 6 7 7 7 7 7 7 7 8 8 8 8 8 8 8 8 7 8 8 7 7 7 8 8 7 7 7 7 7 8 8 8 8 9 8 8 8 9 9 9 9 8 8 8 7 7 8 10 11 11 9 8 7 8 10 11 13 14 16 18 20
16 16 15 14 13 13 12 12 11 10 9 9 9 8 8 8 7 7 6 6 6 6 6 6 6 6 7 7 7 6 6 7 8 8 9 9 8 8 8 7 7 7 7 8 7 7 8 9 9 9 10 9 9 9 9 9 9 10 10 9 9 10 9 9 9 8 8 8 8 8 10 11 12 11 9 8 8 9 10 12 12 13 15 17 19
17 16 16 15 14 14 13 13 12 11 10 10 9 9 8 7 7 7 6 6 5 5 5 5 6 6 6 7 7 7 6 6 6 7 8 8 8 8 8 7 7 7 7 8 7 7 7 8 10 10 11 11 10 10 10 10 10 11 10 10 9 9 8 8 8 8 9 9 10 10 11 12 13 12 10 9 9 10 11 12 13 14 15 17 19
18 17 16 16 15 15 15 14 13 12 11 11 10 9 8 7 7 7 7 6 5 5 5 5 5 5 5 6 6 6 7 7 6 6 6 7 7 7 7 7 7 7 7 7 7 7 6 6 8 9 10 10 10 10 10 10 9 8 8 7 7 8 8 8 9 9 10 10 11 11 11 12 13 12 11 10 9 10 12 13 14 15 15 17 19
20 19 18 17 17 16 16 16 15 14 13 12 11 10 9 8 7 7 7 7 7 6 6 6 6 5 5 5 5 5 6 6 6 6 6 6 6 6 6 6 6 6 6 6 7 7 6 5 6 9 9 9 8 8 8 8 6 5 5 5 6 7 8 9 10 10 11 12 12 12 13 13 13 13 12 11 11 11 13 14 15 16 16 18 19
22 21 20 19 19 18 18 17 17 16 15 14 13 12 11 10 9 8 8 8 8 7 7 7 6 6 6 6 5 5 5 5 6 6 6 7 7 6 6 7 7 7 7 7 6 6 6 5 5 7 8 8 7 6 6 6 5 4 5 6 7 8 9 10 11 12 13 13 13 13 13 13 13 13 13 13 12 12 14 15 16 17 17 18 20
24 23 22 22 21 21 20 19 19 18 17 16 15 14 13 12 11 10 9 8 8 8 8 8 8 7 7 7 6 5 5 5 5 6 6 6 6 6 6 7 7 8 8 8 8 8 7 6 5 5 7 8 8 6 5 6 6 6 6 8 9 10 12 13 14 14 15 15 15 14 14 14 14 14 14 14 14 14 15 16 17 17 18 19 20
25 25 24 23 23 23 23 22 21 20 19 18 17 16 15 14 14 13 12 10 10 10 9 9 9 9 9 8 8 8 7 6 6 6 6 6 5 5 5 5 6 6 7 8 9 9 10 10 9 8 7 8 8 8 7 7 8 8 9 10 12 13 14 15 17 18 18 18 17 16 16 16 14 14 15 15 14 15 16 17 18 18 19 20 20
26 26 26 25 25 25 25 24 23 22 21 20 20 19 18 17 16 15 14 13 11 11 11 11 11 11 11 11 11 10 10 9 8 7 7 7 6 6 5 5 5 6 6 7 8 9 10 11 12 11 11 10 11 10 10 10 10 11 11 13 15 17 17 18 20 21 21 20 19 17 16 16 15 14 14 15 15 15 17 18 18 19 19 20 20
28 28 28 28 27 27 27 26 25 25 24 23 22 22 21 20 19 18 17 15 13 12 12 12 13 13 13 13 13 12 12 12 11 10 10 10 9 9 8 7 7 8 8 8 9 9 10 11 12 12 13 13 13 12 12 13 13 14 14 16 18 20 21 22 23 23 23 21 19 18 16 15 14 14 14 14 15 15 16 17 18 18 19 20 20
29 29 29 29 29 29 28 28 28 27 26 25 25 24 23 22 21 20 19 18 16 14 14 14 15 15 15 15 15 14 14 13 13 12 12 12 12 11 10 10 10 10 11 11 12 12 12 13 13 14 14 15 15 14 14 15 15 15 17 17 19 21 22 23 25 25 24 21 20 19 17 15 13 14 15 15 15 14 15 17 17 17 18 19 20
30 30 30 31 31 30 30 30 30 29 29 28 27 27 26 24 23 22 21 20 18 17 16 16 16 16 16 16 16 15 14 14 13 13 13 13 13 13 12 12 11 12 12 13 13 13 14 14 15 16 16 17 18 17 17 18 17 17 18 19 20 21 22 24 26 27 26 22 19 18 18 16 13 13 15 16 15 14 15 16 17 17 17 18 19
32 31 31 32 32 32 32 32 32 31 31 30 29 29 28 26 26 24 23 22 21 20 19 18 18 18 17 17 16 15 14 13 12 13 13 13 13 14 14 13 12 12 12 13 13 13 13 14 15 16 16 17 18 19 19 19 18 18 19 19 19 20 21 22 24 26 26 23 18 15 17 17 15 13 15 16 15 15 16 16 16 16 16 17 18
35 34 33 33 33 33 33 33 33 33 33 33 32 31 29 27 27 26 25 24 23 22 22 21 20 19 19 18 17 16 14 13 12 13 14 14 14 15 15 15 14 13 13 13 14 14 13 13 14 16 16 16 17 19 19 18 18 18 18 18 18 18 19 20 21 22 24 23 19 16 17 19 17 14 15 16 16 16 17 17 17 16 16 16 18
38 36 35 35 35 35 34 34 34 35 35 35 34 32 30 28 28 27 27 26 25 24 24 23 22 22 20 19 18 17 16 14 14 14 15 16 16 16 16 16 16 16 16 16 16 15 15 15 15 17 17 17 17 19 19 18 18 18 18 18 18 18 18 18 18 20 23 23 21 18 18 20 20 17 16 17 16 17 19 19 19 17 16 17 17
40 39 39 38 37 36 36 35 35 37 38 36 34 34 32 30 29 28 28 27 27 26 26 25 25 24 22 21 20 19 18 17 16 16 17 17 18 18 18 18 18 18 18 18 17 16 16 16 16 17 18 18 18 19 21 20 19 19 18 18 19 19 18 17 17 20 22 23 21 19 18 21 22 20 20 20 19 19 21 22 21 20 18 17 18
42 42 42 42 40 39 39 37 37 38 39 36 35 35 34 32 31 30 29 29 28 28 27 27 27 26 24 23 22 21 21 18 17 18 19 19 19 19 19 19 19 19 19 19 18 17 17 17 17 17 18 19 19 20 21 22 21 20 19 19 20 20 18 17 17 20 22 23 23 21 19 21 22 21 22 23 23 22 23 23 23 22 21 19 19
42 43 44 44 44 43 42 41 40 40 38 37 36 36 35 34 32 31 31 30 29 29 29 28 28 27 26 24 23 23 22 20 19 20 21 20 20 20 20 20 20 21 21 20 19 20 20 19 18 19 19 20 20 21 22 23 23 22 20 20 22 21 19 18 19 20 22 23 24 23 21 20 21 21 21 23 24 24 25 24 24 23 22 21 20
41 43 45 46 46 46 46 44 42 41 38 37 37 38 37 36 34 33 33 32 31 31 31 30 29 29 28 26 26 26 24 22 22 23 22 22 21 21 21 22 22 23 23 22 21 22 23 23 22 22 22 22 22 22 23 24 24 23 22 22 23 23 21 20 20 21 22 23 25 25 23 21 21 22 22 23 23 24 24 24 24 24 24 23 21
38 42 46 47 46 46 45 44 43 42 41 40 40 40 39 38 37 36 35 33 33 33 33 32 31 30 30 29 29 28 26 24 25 26 24 24 23 23 23 24 24 24 25 24 23 23 24 25 25 25 24 24 24 24 25 25 26 25 23 23 25 25 24 23 22 22 23 24 26 26 25 24 23 23 23 23 23 24 25 24 25 26 26 25 24
31 36 41 46 48 47 43 43 44 43 43 45 44 43 41 40 39 37 36 35 35 35 34 33 32 32 32 31 30 30 28 27 28 28 27 26 25 25 25 25 25 25 25 25 25 25 24 24 25 25 25 26 26 25 25 26 26 26 24 24 25 26 26 26 26 25 24 26 27 27 25 26 25 25 25 24 23 24 26 26 27 28 28 28 27
Wind_Direction
105 105 104 102 101 101 100 100 101 102 102 103 104 106 109 111 114 115 116 117 119 120 120 120 120 120 120 120 119 117 115 114 115 115 114 111 107 103 99 98 96 95 93 91 87 83 81 83 88 91 92 92 92 94 98 100 101 101 103 104 104 102 100 98 96 94 91 89 86 83 81 78 75 72 69 66 64 61 59 57 54 52 50 48 45
105 105 104 103 103 104 104 105 105 106 106 106 107 109 111 114 115 117 118 119 120 119 119 119 118 119 118 118 116 115 115 114 114 114 113 110 108 104 101 97 95 93 93 91 88 85 83 87 93 95 96 96 97 100 103 104 105 105 107 108 106 104 102 100 97 95 91 87 83 80 76 73 71 68 66 63 60 58 55 52 49 47 45 42 41
106 105 104 104 105 106 107 107 107 107 108 109 110 112 114 115 117 118 119 119 119 117 117 117 117 117 117 116 115 115 115 114 113 112 111 110 110 107 102 97 96 96 94 92 89 87 87 92 97 99 99 99 101 104 106 107 108 110 111 111 109 107 105 102 99 96 92 87 82 78 73 69 66 63 61 59 56 54 52 49 47 44 42 39 37
106 106 105 105 106 107 108 108 108 109 110 111 111 112 113 115 117 117 118 117 117 117 117 117 117 117 117 116 116 116 114 112 109 107 107 109 109 106 100 97 98 99 98 94 91 90 93 97 101 101 101 102 104 107 108 110 112 115 115 114 111 109 107 103 99 95 89 84 79 75 70 66 62 59 56 53 51 50 49 47 45 43 40 38 36
110 109 108 108 108 108 109 110 110 110 110 110 109 109 110 113 115 116 117 117 117 117 117 119 119 118 117 117 116 115 112 108 104 101 103 106 106 100 95 95 98 102 101 98 95 95 99 102 104 104 103 105 108 110 112 115 117 118 117 114 112 110 107 103 98 93 87 81 76 70 66 62 58 55 51 49 47 46 45 45 43 41 39 37 35
114 112 111 110 110 110 111 111 112 111 109 108 107 107 110 113 115 116 116 117 118 117 118 120 120 119 118 117 116 113 109 104 100 100 103 104 102 97 94 95 99 103 105 102 100 101 104 106 106 106 106 108 111 113 116 119 121 120 117 114 112 110 107 102 97 91 85 79 73 67 62 57 54 51 49 46 44 44 43 42 40 38 37 35 34
115 114 113 112 111 111 111 112 112 110 107 107 107 110 113 116 117 117 116 117 119 119 121 122 121 119 117 116 115 113 108 102 101 103 105 104 101 96 96 99 103 105 106 104 102 103 107 109 108 108 109 112 115 117 119 122 123 121 118 114 112 110 107 101 95 89 83 76 70 64 59 54 52 49 48 46 44 43 41 39 38 35 34 32 32
115 115 114 112 112 112 112 112 111 110 109 109 110 113 116 118 118 118 119 121 123 124 124 124 122 119 117 117 118 116 110 105 105 108 109 106 102 101 102 104 106 107 108 107 105 106 109 110 111 111 113 116 118 120 123 126 126 123 120 116 114 111 107 101 94 87 80 73 67 61 56 53 50 49 48 47 44 42 40 38 35 33 31 30 29
118 116 116 115 114 114 113 113 114 113 114 114 113 114 116 118 117 119 122 126 128 128 128 126 123 120 117 118 119 117 111 108 110 112 111 108 107 107 108 110 110 109 111 110 108 109 112 113 114 114 116 120 122 125 127 129 128 126 123 119 116 113 108 102 94 85 78 71 65 60 55 53 51 50 49 47 44 41 38 36 33 31 29 26 24
122 121 119 117 116 113 112 113 115 116 116 116 115 115 118 119 120 122 127 130 132 132 131 128 125 122 120 119 120 116 109 110 113 113 111 111 111 112 113 115 114 112 114 113 112 113 114 115 115 116 119 123 126 128 130 132 132 129 125 121 118 116 111 102 93 84 77 70 64 58 55 55 53 52 48 45 41 38 34 32 29 26 24 22 19
129 129 126 122 118 114 113 115 116 117 117 117 118 119 119 120 123 127 132 135 136 135 134 131 129 127 125 124 123 119 113 113 114 113 113 114 115 117 118 118 118 118 118 117 117 117 117 116 117 118 121 124 127 129 131 133 133 129 125 122 121 119 113 102 92 83 75 68 62 58 57 56 55 52 47 42 37 34 32 29 26 23 20 17 13
137 138 137 132 126 122 120 119 119 119 119 120 121 123 122 122 125 130 136 139 139 138 136 134 134 132 133 133 130 126 120 114 113 114 115 117 120 124 123 121 122 122 123 124 123 121 118 117 118 121 124 127 129 131 133 133 131 127 124 123 123 119 108 97 89 80 71 64 60 58 57 55 52 47 41 37 35 33 31 27 23 18 15 11 7
142 143 145 144 139 132 127 125 125 124 123 122 122 121 122 124 125 128 133 136 138 138 138 139 138 138 141 141 137 132 124 118 117 115 118 124 126 125 123 120 122 123 127 131 128 122 120 119 122 125 129 131 132 133 133 132 129 126 124 124 123 115 101 92 84 75 68 61 58 58 54 48 42 37 34 33 34 31 27 23 17 13 9 5 2
147 146 147 148 149 144 135 131 130 129 125 121 119 118 118 120 120 123 126 128 130 133 138 141 142 144 146 147 144 135 128 124 122 120 124 129 126 125 126 123 123 127 131 133 128 124 123 124 127 130 134 136 136 135 133 133 132 130 130 131 130 119 102 91 81 72 65 62 61 59 53 44 36 32 31 31 29 24 20 15 11 7 3 359 357
152 149 147 148 151 152 145 137 133 130 126 121 117 115 114 113 114 118 121 121 121 126 133 139 143 148 151 151 147 140 136 132 130 129 127 130 124 124 131 128 129 132 129 131 134 133 131 130 133 137 141 143 142 141 140 140 141 141 143 146 145 136 115 96 78 65 60 61 62 58 50 39 34 31 28 25 20 16 12 8 4 360 356 352 350
160 154 150 149 152 154 150 141 134 131 128 123 118 115 111 110 110 111 113 115 117 121 128 134 141 148 153 155 151 146 145 140 140 139 135 138 126 124 138 138 137 139 133 139 148 144 139 137 140 144 147 151 150 150 151 152 155 157 160 160 160 158 146 121 83 56 47 49 49 44 37 30 27 26 22 17 11 8 4 0 356 352 348 346 346
165 162 155 152 153 154 152 147 142 136 133 127 120 116 113 112 111 110 111 114 117 120 127 135 141 148 154 157 155 153 152 149 150 145 140 144 133 132 148 143 139 144 143 150 154 150 149 147 150 154 156 159 159 160 162 164 168 172 175 176 174 172 160 132 76 43 33 33 31 27 23 19 18 16 11 6 2 360 357 354 351 346 343 342 345
168 167 163 158 156 156 155 155 151 142 137 131 124 119 115 115 115 114 116 118 121 125 130 139 145 151 155 158 158 159 160 160 156 149 147 156 148 146 152 145 144 151 149 152 155 157 160 158 160 162 164 167 168 170 173 175 181 186 189 190 186 183 170 152 88 33 24 22 20 16 11 9 7 3 358 356 355 353 352 350 347 342 340 343 347
171 172 169 163 161 160 160 161 157 150 144 138 132 126 120 121 121 118 118 121 126 130 136 145 150 156 161 164 166 165 169 171 165 160 162 168 162 155 155 153 157 159 157 160 163 166 168 166 166 168 171 174 177 182 185 188 194 199 207 207 202 198 195 205 259 342 4 11 9 4 1 359 357 353 351 350 349 350 350 347 343 341 343 349 353
176 176 173 169 168 166 166 165 161 157 153 147 142 137 133 133 129 123 121 123 127 131 138 149 156 163 168 171 174 173 174 177 177 176 177 176 172 165 161 163 168 168 168 170 172 175 178 176 173 173 177 182 187 194 197 199 202 209 217 220 223 226 230 240 268 317 346 358 357 353 350 349 348 347 347 347 348 348 346 344 342 345 351 356 357
183 180 176 174 174 175 172 169 167 164 162 160 156 149 147 145 139 133 131 132 134 135 140 151 162 171 176 178 181 182 181 183 184 189 191 187 186 179 172 174 174 173 177 179 178 182 185 185 182 182 188 192 197 204 207 209 213 219 224 226 230 235 242 254 274 316 343 347 344 343 341 340 343 345 347 347 345 344 344 346 349 352 356 355 352
191 186 181 179 180 181 179 176 176 173 171 172 168 162 159 156 151 145 143 141 138 136 139 148 162 178 190 190 189 190 192 194 190 193 200 202 203 199 191 188 180 177 185 187 184 186 189 191 193 194 200 204 207 215 219 221 225 229 231 234 238 243 252 266 290 321 334 335 332 332 334 336 340 344 347 345 341 342 347 352 355 355 354 350 346
201 194 189 187 185 187 187 186 187 184 183 185 182 179 177 173 170 164 160 158 150 142 143 153 167 184 200 207 205 205 207 208 202 198 204 208 217 220 215 210 199 191 193 192 193 196 193 197 202 201 209 214 216 224 231 235 238 239 241 244 248 255 266 282 303 314 319 320 321 325 329 334 339 343 344 341 341 348 354 356 355 353 350 347 346
207 204 200 196 194 196 197 198 199 198 198 199 199 201 205 212 222 226 226 226 213 194 186 189 196 202 210 217 219 220 222 224 220 215 213 211 217 225 227 229 226 217 209 204 205 204 200 204 210 211 217 221 223 229 235 242 247 249 251 255 261 268 279 292 301 304 306 310 315 320 325 332 338 339 338 339 348 356 357 355 352 350 349 349 349
208 207 204 203 202 204 204 206 209 212 215 219 222 228 240 251 259 268 271 274 275 269 255 232 221 221 222 224 227 229 229 231 231 230 231 225 218 222 227 232 233 231 227 222 219 217 213 214 221 225 229 231 231 235 239 245 253 259 261 265 272 278 283 290 292 295 300 306 311 315 322 330 333 333 336 344 353 356 353 352 351 353 355 354 352
211 208 206 205 207 209 209 212 218 225 232 239 247 252 260 267 272 274 276 279 280 279 274 260 244 234 229 226 225 226 229 230 232 234 236 239 236 231 234 239 238 234 233 233 233 232 228 226 233 238 240 242 242 243 247 251 257 264 268 269 273 276 278 281 283 287 293 300 305 312 319 324 326 331 340 348 351 351 351 352 354 358 360 358 357
215 213 209 208 211 212 214 218 224 235 244 253 260 265 269 273 277 278 278 280 278 274 271 265 255 243 236 232 227 224 226 228 229 229 231 233 234 232 233 237 240 239 239 240 241 242 242 242 247 250 251 252 250 249 251 253 257 263 266 268 268 268 270 272 274 279 286 293 298 305 310 315 325 335 342 345 347 348 350 355 359 1 2 3 2
218 217 215 214 216 218 220 224 230 238 248 258 267 273 275 277 279 280 279 279 277 274 270 267 262 252 241 236 233 231 232 231 229 228 229 231 232 233 233 233 233 233 233 236 237 242 246 249 253 256 259 259 256 254 254 254 255 258 262 264 263 261 261 263 268 273 279 284 288 294 303 315 329 335 338 341 344 346 351 357 0 2 4 5 5
219 221 221 221 223 225 226 230 234 240 248 256 265 274 279 280 280 278 276 274 273 275 275 275 271 263 252 242 236 235 234 233 232 230 230 231 232 234 235 236 236 233 231 230 229 233 240 245 249 255 261 264 263 260 258 258 257 258 260 261 261 258 257 260 266 271 272 274 281 292 305 319 327 331 334 339 342 345 351 357 1 3 4 4 4
222 224 226 227 228 231 233 235 238 242 248 253 260 268 275 279 278 275 271 268 268 270 272 273 271 265 261 255 247 239 234 232 232 232 232 233 234 235 238 241 243 243 241 238 235 236 239 241 244 251 257 263 265 262 262 265 266 265 264 264 263 261 263 264 265 266 268 275 287 299 310 318 322 327 332 336 338 342 350 356 359 1 2 2 3
224 226 227 228 230 234 237 239 241 243 246 249 255 261 267 272 272 269 264 262 261 261 260 262 262 259 259 261 260 253 245 239 237 237 236 237 237 239 242 246 248 251 253 251 246 245 246 247 247 249 252 254 258 262 268 272 272 268 267 265 265 264 266 266 264 265 272 284 297 306 311 315 319 325 330 329 331 338 345 351 354 356 358 359 0
227 228 230 231 233 235 237 239 241 243 244 247 251 256 262 265 264 260 256 252 251 251 250 252 255 255 255 257 259 257 252 247 244 242 241 242 243 245 248 251 253 256 260 260 256 250 250 252 252 252 254 254 252 255 262 266 266 265 265 264 263 263 262 261 263 271 282 295 304 307 310 313 316 322 325 322 323 331 337 342 346 349 353 356 357
229 231 233 235 236 237 238 238 240 241 243 246 248 252 258 263 262 258 256 254 249 245 242 244 250 251 252 253 255 255 253 251 249 248 248 248 248 249 253 258 262 265 268 270 269 262 252 253 256 257 257 259 258 256 258 262 264 264 264 262 259 255 253 258 269 281 291 299 303 304 307 309 312 317 320 317 317 323 328 332 337 341 348 352 353
230 233 236 237 238 239 239 238 237 238 240 243 245 247 252 259 263 262 259 257 254 247 240 238 241 244 245 248 251 251 250 252 253 254 255 255 255 255 256 260 264 269 275 281 286 286 273 258 260 265 265 266 267 265 264 266 268 267 261 251 247 247 251 263 278 289 297 301 303 303 302 303 305 310 312 312 312 316 321 324 328 334 341 347 349
231 232 234 237 237 237 237 237 236 236 237 240 241 242 244 249 256 260 261 260 255 251 246 241 236 235 237 241 246 246 246 249 252 253 255 258 260 259 259 260 262 267 274 283 291 297 297 282 267 271 277 278 277 274 271 268 266 259 242 232 240 252 262 273 283 291 298 302 304 303 300 298 299 302 305 306 307 311 315 318 321 328 335 341 344
234 234 234 235 236 236 236 236 236 236 237 238 239 238 239 242 246 249 254 258 257 254 252 250 244 238 237 241 244 244 241 244 247 248 249 250 253 255 256 258 260 262 267 274 281 289 297 299 284 279 285 289 287 280 272 267 258 237 226 234 249 260 267 273 279 286 295 301 305 305 301 296 294 296 298 300 303 308 311 314 318 323 330 335 338
237 237 236 237 238 238 238 237 237 238 238 239 240 240 240 241 244 245 246 248 251 252 253 254 252 248 245 246 247 244 238 238 242 245 246 246 247 248 249 251 255 260 263 268 275 280 286 292 291 284 284 288 291 285 270 260 255 245 240 246 256 262 268 272 277 284 292 298 304 307 303 296 292 293 294 295 300 305 309 311 315 320 326 329 332
239 240 239 240 241 242 243 242 242 242 241 241 242 243 243 244 245 247 246 243 244 245 248 251 254 254 252 251 252 250 245 240 239 243 246 248 249 250 253 254 258 265 269 271 275 279 282 287 289 286 281 280 282 284 277 265 261 260 260 264 267 266 268 273 279 285 291 296 301 305 302 296 291 289 289 292 297 303 307 309 313 318 322 326 328
242 243 243 243 243 244 246 247 247 247 247 246 246 245 245 245 245 246 247 246 243 242 244 247 250 252 252 251 253 255 255 253 250 251 255 259 262 262 265 268 272 277 279 279 278 278 280 282 284 285 284 279 276 276 275 270 265 263 263 269 273 273 273 277 281 286 290 295 300 302 298 292 289 285 284 288 293 298 302 305 310 315 319 322 324
244 245 246 246 245 246 247 248 249 250 250 250 250 249 247 247 247 247 248 248 245 242 243 245 247 250 252 253 254 256 259 262 262 263 265 267 271 272 274 276 277 277 276 274 273 273 274 274 274 276 277 276 274 273 272 270 268 267 267 268 271 275 279 282 285 288 291 295 301 302 296 290 287 284 282 283 288 293 298 302 307 313 317 319 322
243 245 247 248 248 248 248 249 250 250 250 251 251 252 251 250 250 250 251 251 250 246 244 244 246 249 252 255 257 259 261 264 268 271 273 274 275 275 274 273 271 270 268 267 267 267 268 270 271 273 274 275 276 276 276 274 273 273 274 274 274 277 280 283 285 287 291 296 301 303 297 290 286 283 282 282 283 287 294 300 306 311 314 316 319
241 244 246 248 249 249 249 250 250 250 250 250 251 252 253 254 254 254 254 255 255 253 251 249 249 250 252 255 258 261 264 267 273 278 280 280 281 280 278 273 269 269 269 270 270 269 271 272 274 275 275 276 277 277 276 275 274 274 275 275 277 279 282 283 285 287 289 293 298 300 297 292 287 284 284 285 286 289 294 298 303 307 310 313 316
240 241 243 246 248 249 250 250 251 251 251 251 250 251 253 254 256 256 256 256 257 257 256 255 254 254 254 256 258 262 266 272 279 282 282 283 283 284 283 280 278 276 275 275 274 273 273 274 274 274 274 274 276 277 276 275 276 275 275 276 277 279 282 284 286 289 291 294 297 297 294 291 288 286 284 284 287 290 293 296 298 302 307 312 315
239 239 241 243 244 246 248 249 250 251 252 252 251 251 251 253 256 258 258 258 258 258 258 258 258 257 256 258 260 263 266 270 274 276 278 280 281 281 281 282 282 280 278 275 274 274 273 273 273 274 272 273 276 278 279 279 280 279 279 280 280 281 282 284 287 290 292 295 297 297 293 288 285 283 282 282 286 289 292 295 297 301 307 312 313
240 240 241 242 244 244 245 247 250 251 252 252 252 252 252 252 254 257 259 260 260 259 259 259 259 258 258 259 261 263 263 262 262 265 269 273 275 276 277 278 278 278 277 275 275 275 276 276 276 277 277 277 278 279 280 282 282 282 282 284 285 284 284 286 289 290 291 294 297 297 295 290 288 287 286 286 288 292 294 297 299 303 308 311 312
241 241 241 241 243 244 245 246 247 250 250 251 252 253 253 251 251 252 254 257 259 259 260 260 259 260 261 261 262 263 262 261 261 261 263 266 269 272 274 275 276 277 277 277 277 277 277 276 276 276 278 279 280 281 283 284 284 285 285 287 288 286 287 290 291 289 290 293 295 295 292 290 290 293 294 294 294 295 296 297 300 303 307 310 310
241 240 241 241 242 243 244 244 245 248 249 250 251 252 253 252 252 252 252 253 256 257 259 260 261 262 263 264 265 266 265 264 263 261 261 262 265 268 271 273 276 277 278 279 280 280 279 277 276 275 276 278 279 280 282 285 286 288 290 291 289 288 291 294 292 289 289 290 292 291 288 287 289 291 292 293 294 294 295 296 298 300 303 306 307
247 244 241 240 241 242 243 244 244 246 249 250 250 251 252 252 251 252 253 253 254 256 258 259 261 263 264 265 266 267 267 266 263 261 261 262 263 266 269 271 273 275 277 278 281 283 281 279 278 278 278 279 280 280 282 283 286 288 291 291 289 290 293 293 290 288 289 288 289 288 287 287 288 289 288 288 289 290 291 292 294 295 297 300 302
254 252 247 243 240 240 242 244 246 248 249 251 251 251 251 251 250 249 250 251 252 254 255 257 259 260 262 263 263 263 264 265 264 262 261 261 262 264 267 269 271 272 275 276 278 280 282 282 281 280 279 279 280 280 281 282 283 286 288 287 287 290 292 289 286 285 286 287 288 288 289 288 287 288 288 287 287 288 288 289 292 292 293 295 297
254 256 254 249 244 241 242 244 246 249 249 249 250 251 251 251 250 249 249 250 250 251 253 255 256 258 259 260 261 262 263 263 263 264 263 262 262 263 265 268 270 272 275 277 277 277 279 280 282 282 281 280 279 279 279 280 281 282 284 285 286 288 289 287 285 283 283 284 284 286 290 291 290 289 287 287 287 288 288 289 290 290 291 293 295
253 255 253 249 245 242 241 241 243 247 249 248 247 249 251 252 252 252 251 251 250 251 252 254 255 257 257 258 260 262 263 262 262 263 264 264 264 265 265 267 269 271 274 276 277 278 279 281 282 283 284 284 283 281 281 282 283 284 285 285 285 286 286 286 284 282 280 280 280 283 286 288 289 289 287 286 285 286 288 290 289 289 290 292 294
Height
5945 5945 5945 5945 5945 5945 5945 5945 5946 5946 5947 5947 5948 5949 5950 5951 5952 5952 5953 5954 5955 5955 5956 5957 5957 5958 5958 5959 5959 5960 5960 5960 5960 5960 5961 5961 5961 5961 5961 5961 5961 5961 5961 5961 5961 5961 5961 5960 5960 5960 5961 5961 5961 5961 5961 5961 5961 5961 5961 5961 5961 5961 5961 5961 5961 5961 5960 5960 5959 5959 5959 5958 5958 5957 5957 5956 5955 5955 5954 5953 5952 5951 5950 5949 5948
5946 5947 5947 5947 5947 5947 5948 5948 5949 5949 5950 5950 5951 5952 5953 5954 5954 5955 5955 5956 5956 5957 5958 5958 5958 5959 5960 5960 5961 5961 5961 5962 5962 5962 5962 5962 5962 5962 5963 5963 5963 5963 5963 5963 5962 5962 5962 5962 5962 5962 5962 5962 5962 5962 5963 5963 5963 5963 5963 5963 5963 5963 5963 5963 5962 5962 5962 5962 5961 5961 5960 5960 5959 5959 5958 5957 5957 5956 5955 5954 5953 5952 5951 5950 5949
5948 5949 5949 5949 5950 5950 5951 5951 5952 5952 5953 5953 5954 5955 5955 5956 5956 5957 5957 5957 5958 5958 5959 5959 5960 5960 5961 5962 5962 5962 5962 5963 5963 5963 5963 5963 5963 5964 5964 5964 5964 5964 5964 5964 5964 5964 5964 5964 5964 5964 5964 5964 5964 5964 5964 5964 5964 5965 5965 5965 5965 5964 5964 5964 5964 5964 5964 5963 5963 5962 5962 5961 5961 5960 5959 5959 5958 5957 5956 5955 5954 5953 5952 5951 5950
5951 5951 5951 5952 5952 5953 5953 5954 5954 5954 5955 5955 5956 5957 5957 5958 5958 5959 5959 5959 5959 5959 5960 5960 5961 5962 5963 5963 5963 5963 5963 5964 5964 5964 5964 5964 5965 5965 5965 5965 5965 5965 5965 5965 5965 5965 5965 5965 5965 5966 5966 5966 5966 5966 5966 5966 5966 5966 5966 5966 5966 5966 5966 5966 5966 5966 5965 5965 5964 5964 5963 5963 5962 5962 5961 5960 5959 5959 5958 5957 5956 5954 5953 5952 5951
5953 5953 5953 5954 5955 5955 5956 5956 5956 5957 5957 5957 5958 5958 5959 5959 5960 5960 5960 5960 5961 5961 5961 5962 5962 5963 5963 5964 5964 5964 5964 5965 5965 5965 5965 5966 5966 5966 5966 5966 5966 5966 5966 5966 5966 5966 5967 5967 5967 5967 5967 5968 5968 5968 5968 5968 5968 5968 5968 5968 5968 5968 5968 5968 5967 5967 5967 5966 5966 5966 5965 5964 5964 5963 5962 5962 5961 5960 5959 5958 5957 5955 5954 5953 5951
5955 5955 5956 5956 5957 5957 5958 5958 5958 5958 5959 5959 5960 5960 5961 5961 5961 5961 5961 5962 5962 5962 5962 5963 5963 5963 5964 5965 5965 5965 5965 5966 5966 5966 5966 5967 5967 5967 5967 5967 5968 5968 5967 5967 5968 5968 5968 5968 5968 5969 5969 5969 5969 5969 5969 5969 5969 5970 5970 5970 5970 5970 5969 5969 5969 5969 5968 5968 5968 5967 5967 5966 5965 5964 5964 5963 5962 5961 5960 5959 5958 5956 5955 5954 5952
5957 5957 5957 5958 5958 5959 5959 5960 5960 5960 5961 5961 5962 5962 5962 5963 5963 5963 5963 5963 5963 5963 5964 5964 5964 5965 5965 5965 5966 5966 5966 5967 5967 5967 5967 5968 5968 5968 5968 5968 5969 5969 5969 5969 5969 5969 5969 5970 5970 5970 5970 5971 5971 5971 5971 5971 5971 5971 5971 5971 5971 5971 5971 5971 5970 5970 5970 5969 5969 5969 5968 5967 5967 5966 5965 5964 5963 5962 5961 5960 5959 5957 5956 5955 5953
5959 5959 5959 5960 5960 5960 5961 5961 5961 5962 5962 5963 5963 5964 5964 5964 5964 5964 5965 5965 5965 5965 5965 5965 5966 5966 5966 5966 5967 5967 5967 5967 5968 5968 5968 5968 5968 5968 5969 5969 5969 5970 5970 5970 5970 5970 5971 5971 5971 5971 5972 5972 5972 5973 5973 5973 5973 5973 5973 5973 5973 5972 5972 5972 5972 5971 5971 5971 5970 5970 5969 5968 5968 5967 5966 5965 5964 5963 5962 5961 5960 5958 5957 5956 5954
5961 5961 5961 5962 5962 5962 5962 5963 5963 5964 5964 5965 5965 5966 5966 5966 5966 5966 5966 5966 5966 5966 5966 5966 5967 5967 5967 5967 5968 5968 5968 5968 5968 5968 5969 5969 5969 5969 5969 5970 5970 5971 5971 5971 5971 5972 5972 5972 5972 5973 5973 5973 5974 5974 5974 5974 5974 5974 5974 5974 5974 5974 5974 5973 5973 5973 5972 5972 5971 5971 5970 5969 5969 5968 5967 5966 5965 5964 5963 5962 5961 5959 5958 5956 5955
5963 5963 5963 5964 5964 5964 5964 5965 5965 5965 5966 5966 5966 5967 5967 5967 5967 5967 5968 5967 5967 5967 5967 5967 5967 5968 5968 5968 5969 5969 5969 5969 5969 5969 5969 5969 5969 5969 5970 5970 5971 5971 5972 5972 5972 5973 5973 5973 5974 5974 5974 5975 5975 5975 5975 5975 5975 5975 5975 5975 5975 5975 5975 5974 5974 5974 5973 5973 5972 5972 5971 5970 5970 5969 5968 5967 5966 5965 5964 5962 5961 5960 5958 5957 5955
5964 5965 5965 5965 5965 5966 5966 5966 5967 5967 5967 5968 5968 5968 5968 5968 5968 5969 5969 5969 5968 5968 5968 5968 5968 5968 5969 5969 5969 5970 5970 5970 5970 5970 5970 5970 5970 5970 5970 5970 5971 5971 5972 5973 5973 5974 5974 5975 5975 5975 5976 5976 5976 5976 5976 5977 5977 5977 5977 5977 5976 5976 5976 5975 5975 5974 5974 5974 5973 5972 5972 5971 5970 5969 5969 5968 5967 5965 5964 5963 5961 5960 5958 5957 5955
5965 5966 5966 5967 5967 5967 5967 5968 5968 5968 5969 5969 5969 5970 5970 5969 5969 5970 5970 5970 5969 5969 5969 5969 5969 5969 5970 5970 5970 5970 5970 5971 5971 5971 5971 5971 5971 5970 5970 5971 5971 5971 5972 5974 5974 5974 5975 5975 5976 5976 5976 5977 5977 5977 5977 5978 5978 5978 5978 5978 5978 5977 5977 5977 5976 5976 5975 5975 5974 5973 5973 5972 5971 5970 5969 5968 5967 5966 5964 5963 5962 5960 5958 5957 5955
5966 5967 5967 5968 5968 5968 5968 5969 5969 5970 5970 5970 5970 5971 5971 5971 5970 5971 5971 5971 5970 5970 5970 5970 5970 5970 5971 5971 5971 5971 5971 5971 5972 5972 5972 5972 5971 5972 5971 5971 5972 5972 5973 5974 5975 5975 5976 5976 5976 5977 5977 5977 5978 5978 5978 5979 5979 5979 5979 5979 5979 5978 5978 5978 5977 5977 5976 5976 5975 5974 5973 5973 5972 5971 5969 5968 5967 5966 5965 5963 5962 5960 5958 5957 5955
5967 5968 5968 5968 5969 5969 5969 5970 5970 5970 5971 5971 5971 5971 5971 5971 5971 5972 5972 5972 5971 5971 5971 5971 5971 5971 5971 5972 5972 5972 5972 5972 5973 5973 5973 5972 5972 5973 5973 5972 5972 5972 5973 5974 5975 5976 5976 5977 5977 5977 5978 5978 5978 5979 5979 5979 5979 5979 5980 5980 5979 5979 5979 5978 5978 5977 5977 5976 5975 5975 5974 5973 5972 5971 5970 5969 5967 5966 5965 5963 5962 5960 5958 5956 5954
5968 5968 5969 5969 5969 5970 5970 5971 5971 5971 5972 5972 5972 5972 5972 5972 5972 5973 5973 5972 5972 5972 5972 5972 5972 5972 5972 5972 5973 5973 5973 5973 5973 5974 5973 5973 5973 5974 5973 5972 5973 5973 5973 5975 5976 5976 5977 5977 5977 5978 5978 5978 5979 5979 5979 5979 5980 5980 5980 5980 5979 5979 5979 5978 5978 5978 5977 5976 5976 5975 5974 5973 5973 5972 5970 5969 5968 5966 5965 5963 5961 5960 5958 5956 5954
5969 5969 5969 5969 5970 5970 5971 5971 5972 5972 5972 5973 5973 5973 5973 5973 5973 5973 5973 5973 5973 5973 5973 5973 5973 5973 5973 5973 5973 5974 5974 5974 5974 5974 5974 5973 5974 5976 5974 5973 5973 5973 5974 5975 5976 5976 5976 5977 5978 5978 5979 5979 5979 5979 5979 5979 5980 5980 5979 5979 5979 5979 5979 5979 5978 5978 5977 5977 5976 5976 5975 5974 5973 5972 5971 5969 5968 5966 5965 5963 5961 5959 5957 5955 5953
5969 5969 5969 5969 5970 5970 5971 5972 5972 5972 5973 5973 5974 5974 5974 5974 5974 5973 5973 5973 5973 5974 5974 5974 5974 5974 5975 5975 5974 5974 5975 5975 5975 5975 5975 5974 5975 5976 5976 5975 5974 5974 5975 5975 5976 5976 5977 5977 5978 5978 5979 5979 5979 5979 5979 5979 5980 5980 5979 5979 5979 5979 5979 5979 5979 5978 5978 5977 5977 5976 5975 5974 5973 5972 5971 5969 5968 5966 5965 5963 5961 5959 5957 5955 5953
5970 5970 5970 5970 5970 5971 5971 5972 5972 5973 5973 5974 5974 5974 5974 5974 5974 5974 5974 5974 5974 5974 5975 5975 5975 5975 5975 5976 5976 5976 5976 5975 5976 5976 5976 5975 5975 5975 5976 5977 5977 5977 5977 5977 5977 5977 5977 5977 5977 5978 5979 5979 5980 5980 5980 5980 5980 5980 5980 5980 5980 5980 5980 5980 5979 5979 5978 5977 5977 5976 5975 5974 5973 5972 5970 5969 5968 5966 5964 5962 5960 5958 5956 5954 5952
5970 5971 5971 5971 5971 5971 5972 5972 5973 5974 5974 5974 5974 5975 5975 5975 5975 5975 5975 5975 5975 5975 5975 5976 5976 5976 5976 5976 5976 5976 5976 5976 5976 5977 5977 5976 5976 5976 5976 5977 5977 5978 5978 5978 5978 5978 5978 5978 5977 5978 5978 5979 5980 5980 5980 5980 5980 5980 5980 5980 5980 5980 5980 5980 5979 5979 5978 5977 5977 5976 5975 5974 5973 5971 5970 5969 5967 5965 5964 5962 5960 5958 5956 5954 5952
5971 5971 5971 5971 5972 5972 5972 5973 5973 5974 5975 5975 5975 5975 5976 5976 5976 5976 5976 5976 5976 5976 5976 5976 5977 5977 5977 5977 5977 5977 5977 5977 5977 5977 5977 5977 5977 5977 5977 5977 5977 5978 5978 5978 5978 5978 5979 5979 5978 5978 5978 5979 5979 5980 5980 5980 5981 5980 5980 5980 5980 5980 5980 5979 5979 5979 5978 5977 5977 5976 5975 5973 5972 5971 5970 5968 5967 5965 5963 5961 5960 5958 5956 5954 5952
5971 5971 5972 5972 5973 5973 5973 5973 5974 5975 5975 5976 5976 5976 5977 5977 5977 5977 5977 5977 5977 5977 5977 5977 5978 5978 5978 5978 5978 5978 5978 5977 5978 5978 5978 5978 5978 5978 5977 5977 5978 5978 5979 5979 5979 5978 5979 5979 5978 5978 5979 5978 5979 5980 5980 5980 5980 5980 5980 5980 5980 5980 5979 5979 5979 5978 5978 5977 5977 5975 5974 5973 5972 5970 5969 5968 5966 5964 5963 5961 5960 5958 5956 5954 5952
5972 5972 5972 5973 5973 5974 5974 5974 5975 5975 5976 5977 5977 5978 5978 5978 5978 5978 5978 5978 5978 5978 5978 5978 5978 5978 5978 5978 5978 5978 5978 5978 5978 5978 5978 5978 5978 5978 5978 5978 5978 5979 5979 5979 5979 5979 5978 5979 5978 5978 5978 5978 5979 5980 5980 5980 5980 5980 5979 5979 5979 5979 5979 5979 5979 5978 5978 5977 5976 5975 5974 5973 5971 5970 5969 5967 5966 5964 5963 5961 5959 5958 5956 5954 5952
5973 5973 5973 5973 5974 5974 5975 5975 5975 5976 5976 5977 5978 5978 5979 5979 5979 5979 5979 5979 5979 5979 5978 5979 5979 5979 5979 5979 5979 5979 5979 5979 5979 5979 5979 5979 5979 5979 5979 5979 5979 5980 5980 5979 5979 5979 5979 5979 5978 5978 5979 5978 5978 5979 5980 5980 5980 5979 5979 5979 5979 5979 5979 5979 5979 5978 5977 5976 5975 5974 5973 5972 5971 5970 5968 5967 5965 5964 5962 5961 5959 5957 5955 5953 5951
5973 5973 5974 5974 5974 5975 5975 5975 5976 5976 5977 5977 5978 5979 5979 5979 5980 5980 5980 5980 5980 5979 5979 5979 5979 5979 5979 5979 5979 5979 5979 5980 5980 5979 5979 5979 5980 5980 5980 5980 5980 5980 5980 5980 5980 5979 5979 5979 5979 5979 5979 5978 5978 5979 5979 5979 5979 5979 5979 5979 5979 5979 5979 5979 5978 5978 5977 5976 5975 5974 5973 5972 5971 5970 5968 5967 5965 5964 5962 5961 5959 5957 5955 5953 5951
5972 5973 5973 5974 5974 5975 5975 5976 5976 5977 5977 5978 5978 5979 5979 5980 5980 5980 5980 5980 5980 5980 5980 5980 5980 5980 5980 5980 5980 5980 5980 5980 5980 5980 5980 5980 5980 5980 5980 5980 5980 5980 5980 5980 5980 5980 5979 5979 5979 5979 5979 5979 5978 5978 5978 5979 5979 5979 5979 5979 5979 5979 5979 5978 5978 5977 5976 5975 5974 5973 5972 5971 5970 5969 5968 5966 5965 5963 5962 5960 5959 5957 5955 5953 5951
5971 5972 5973 5974 5974 5975 5975 5976 5977 5977 5978 5978 5978 5979 5979 5980 5980 5980 5980 5980 5980 5980 5980 5981 5981 5980 5980 5980 5980 5980 5980 5980 5980 5980 5980 5980 5980 5980 5980 5980 5980 5980 5980 5980 5980 5980 5980 5980 5980 5979 5979 5979 5978 5978 5978 5978 5978 5978 5978 5978 5978 5978 5978 5977 5977 5976 5975 5974 5973 5972 5971 5971 5970 5969 5967 5966 5964 5963 5961 5960 5958 5957 5955 5953 5950
5971 5972 5972 5973 5974 5974 5975 5976 5976 5977 5977 5978 5978 5979 5979 5979 5979 5980 5980 5980 5980 5980 5980 5980 5980 5980 5980 5980 5980 5980 5980 5980 5980 5980 5980 5980 5980 5980 5980 5980 5980 5980 5980 5980 5980 5980 5980 5980 5980 5979 5979 5979 5978 5978 5977 5977 5977 5977 5977 5977 5977 5977 5977 5976 5976 5975 5974 5973 5972 5971 5971 5970 5969 5968 5967 5965 5964 5962 5961 5960 5958 5956 5954 5952 5950
5970 5971 5972 5972 5973 5973 5974 5975 5976 5976 5977 5978 5978 5978 5978 5979 5979 5979 5979 5979 5980 5980 5980 5980 5980 5980 5980 5980 5980 5980 5980 5979 5979 5979 5979 5979 5979 5979 5979 5979 5979 5979 5979 5979 5980 5980 5980 5980 5979 5979 5979 5978 5978 5977 5977 5976 5976 5976 5976 5976 5976 5976 5975 5975 5974 5974 5973 5972 5971 5971 5970 5969 5968 5967 5966 5965 5963 5962 5961 5959 5958 5956 5954 5952 5950
5970 5971 5971 5972 5972 5973 5973 5974 5975 5976 5976 5977 5977 5977 5978 5978 5978 5978 5978 5979 5979 5979 5979 5979 5979 5980 5980 5980 5979 5979 5979 5979 5979 5979 5979 5979 5979 5978 5978 5978 5978 5978 5978 5978 5979 5979 5979 5979 5979 5978 5978 5978 5977 5977 5976 5976 5976 5976 5975 5975 5975 5975 5975 5974 5974 5973 5972 5971 5971 5970 5969 5968 5968 5967 5965 5964 5963 5961 5960 5959 5958 5956 5954 5952 5950
5969 5970 5971 5971 5972 5972 5973 5973 5974 5975 5975 5976 5976 5976 5977 5977 5977 5977 5977 5977 5978 5978 5978 5978 5979 5979 5979 5979 5979 5979 5979 5979 5979 5978 5978 5978 5978 5978 5978 5978 5978 5978 5978 5978 5978 5978 5977 5977 5977 5977 5977 5977 5977 5977 5976 5976 5976 5976 5975 5975 5975 5975 5974 5974 5973 5972 5972 5971 5970 5970 5969 5968 5967 5966 5965 5963 5962 5961 5960 5959 5957 5955 5953 5951 5949
5968 5969 5969 5970 5971 5972 5972 5973 5973 5974 5974 5974 5975 5975 5975 5975 5976 5976 5976 5976 5976 5977 5977 5977 5978 5978 5978 5978 5978 5978 5978 5978 5978 5978 5978 5978 5978 5978 5978 5978 5978 5978 5977 5977 5977 5977 5977 5977 5977 5976 5976 5976 5976 5976 5976 5976 5976 5975 5975 5975 5975 5974 5974 5974 5973 5972 5971 5971 5970 5969 5968 5968 5967 5965 5964 5963 5962 5960 5959 5958 5956 5954 5953 5951 5949
5966 5967 5968 5969 5970 5970 5971 5972 5972 5973 5973 5973 5974 5974 5974 5974 5975 5975 5975 5975 5975 5975 5976 5976 5976 5977 5977 5977 5977 5978 5978 5978 5978 5978 5978 5978 5978 5978 5978 5977 5977 5977 5977 5977 5977 5977 5976 5976 5976 5976 5975 5975 5975 5975 5974 5974 5974 5974 5974 5974 5974 5974 5973 5973 5972 5972 5971 5970 5970 5969 5968 5967 5966 5965 5964 5962 5961 5960 5958 5957 5955 5954 5952 5951 5949
5965 5965 5966 5967 5968 5969 5970 5970 5971 5971 5972 5972 5973 5973 5973 5973 5974 5974 5974 5974 5974 5974 5974 5975 5975 5976 5976 5976 5976 5977 5977 5977 5977 5977 5977 5977 5977 5977 5977 5977 5977 5977 5976 5976 5976 5976 5976 5975 5975 5975 5974 5974 5974 5974 5973 5973 5973 5973 5973 5973 5973 5973 5972 5972 5972 5971 5970 5970 5969 5968 5967 5966 5965 5964 5963 5962 5960 5959 5957 5956 5955 5953 5952 5950 5949
5963 5963 5964 5965 5966 5967 5968 5969 5969 5970 5970 5971 5971 5972 5972 5972 5972 5973 5973 5973 5973 5973 5973 5974 5974 5975 5975 5975 5975 5976 5976 5976 5976 5976 5976 5976 5977 5977 5976 5976 5976 5976 5975 5975 5975 5974 5975 5975 5974 5974 5973 5973 5973 5973 5972 5972 5972 5972 5972 5972 5972 5972 5972 5971 5971 5970 5969 5968 5968 5967 5966 5965 5964 5963 5962 5961 5959 5958 5957 5955 5954 5952 5951 5950 5948
5961 5962 5963 5964 5965 5966 5966 5967 5968 5968 5969 5970 5970 5970 5971 5971 5971 5971 5971 5971 5972 5972 5973 5973 5973 5973 5973 5973 5974 5974 5974 5975 5975 5975 5975 5975 5975 5975 5975 5975 5975 5975 5974 5974 5974 5974 5974 5974 5974 5973 5973 5972 5972 5972 5972 5971 5971 5971 5971 5971 5971 5971 5971 5970 5970 5969 5968 5967 5966 5965 5965 5964 5963 5961 5960 5959 5958 5957 5956 5954 5953 5952 5950 5949 5947
5960 5961 5962 5962 5963 5964 5965 5966 5967 5967 5968 5968 5968 5969 5969 5969 5969 5969 5970 5970 5970 5971 5971 5972 5972 5972 5972 5972 5972 5972 5973 5973 5973 5973 5973 5973 5974 5974 5974 5973 5973 5973 5973 5973 5973 5973 5973 5973 5973 5972 5972 5972 5971 5971 5971 5971 5970 5970 5970 5970 5970 5970 5970 5969 5968 5967 5967 5966 5965 5964 5963 5962 5961 5960 5959 5958 5957 5956 5955 5953 5952 5951 5949 5948 5946
5959 5960 5961 5962 5962 5963 5964 5965 5965 5966 5966 5967 5967 5967 5967 5967 5967 5967 5968 5968 5969 5969 5969 5970 5970 5970 5970 5970 5970 5971 5971 5972 5972 5972 5972 5972 5972 5972 5972 5972 5972 5972 5972 5972 5972 5972 5971 5971 5972 5971 5971 5971 5971 5970 5970 5970 5970 5970 5970 5969 5969 5968 5968 5967 5966 5966 5965 5964 5963 5963 5962 5961 5960 5959 5958 5957 5956 5955 5954 5952 5951 5950 5948 5947 5945
5958 5958 5960 5961 5961 5962 5963 5964 5964 5965 5965 5965 5965 5965 5966 5966 5966 5966 5966 5967 5967 5967 5967 5968 5968 5968 5969 5969 5969 5969 5970 5970 5971 5971 5971 5971 5971 5971 5971 5971 5971 5971 5971 5971 5971 5971 5971 5970 5970 5970 5970 5970 5970 5970 5970 5969 5969 5969 5969 5968 5967 5967 5966 5965 5964 5963 5963 5962 5961 5961 5960 5959 5958 5957 5956 5955 5954 5954 5952 5951 5950 5948 5947 5945 5944
5956 5957 5958 5959 5959 5960 5961 5962 5963 5963 5964 5964 5964 5964 5964 5964 5964 5964 5965 5965 5965 5966 5966 5966 5966 5966 5966 5967 5967 5968 5968 5969 5969 5970 5970 5970 5970 5970 5970 5970 5971 5971 5970 5970 5970 5970 5969 5969 5969 5968 5968 5968 5968 5968 5968 5968 5968 5967 5967 5966 5965 5964 5964 5963 5962 5961 5960 5960 5959 5959 5958 5957 5956 5955 5954 5953 5953 5952 5951 5949 5948 5947 5946 5944 5943
5953 5954 5955 5956 5957 5958 5959 5959 5960 5961 5962 5962 5962 5962 5962 5962 5963 5963 5963 5964 5964 5964 5964 5964 5964 5964 5964 5965 5965 5966 5967 5967 5968 5969 5969 5969 5969 5969 5969 5969 5969 5969 5969 5968 5968 5968 5967 5967 5967 5966 5966 5966 5965 5966 5966 5966 5966 5965 5965 5964 5963 5962 5961 5961 5960 5959 5958 5957 5957 5956 5955 5954 5953 5952 5952 5951 5950 5950 5949 5947 5947 5946 5944 5943 5941
5950 5951 5952 5953 5954 5955 5956 5957 5957 5958 5959 5959 5959 5960 5960 5961 5961 5962 5962 5963 5963 5963 5963 5962 5962 5962 5963 5963 5963 5964 5965 5965 5966 5967 5967 5967 5967 5967 5967 5967 5967 5966 5966 5966 5966 5966 5965 5965 5965 5964 5964 5963 5963 5963 5963 5963 5963 5963 5963 5962 5962 5961 5960 5958 5957 5956 5955 5955 5955 5954 5953 5952 5951 5950 5949 5949 5948 5948 5947 5945 5945 5944 5943 5941 5940
5946 5948 5949 5950 5951 5952 5953 5953 5954 5955 5955 5956 5956 5957 5958 5959 5959 5960 5961 5961 5961 5961 5961 5961 5961 5961 5961 5961 5961 5962 5963 5963 5964 5965 5965 5965 5965 5965 5965 5964 5964 5964 5964 5964 5964 5963 5963 5963 5963 5962 5962 5961 5961 5961 5961 5961 5961 5961 5960 5960 5960 5959 5958 5957 5955 5954 5953 5953 5953 5952 5950 5950 5950 5949 5948 5947 5946 5946 5945 5944 5943 5942 5941 5939 5938
5942 5944 5945 5946 5947 5948 5949 5950 5951 5952 5952 5953 5953 5954 5955 5956 5957 5958 5958 5959 5959 5959 5959 5959 5959 5959 5959 5959 5959 5960 5961 5961 5962 5962 5962 5962 5962 5962 5962 5962 5962 5962 5962 5961 5961 5961 5961 5961 5960 5960 5959 5959 5958 5958 5958 5958 5958 5958 5957 5957 5957 5956 5956 5955 5954 5952 5951 5950 5951 5951 5949 5947 5947 5947 5946 5945 5944 5943 5942 5941 5940 5939 5938 5937 5935
5938 5940 5941 5942 5943 5944 5945 5946 5948 5949 5949 5950 5950 5951 5952 5953 5954 5955 5956 5956 5957 5957 5957 5957 5957 5957 5957 5957 5957 5958 5958 5959 5959 5959 5959 5959 5959 5959 5959 5959 5959 5959 5959 5959 5958 5958 5958 5957 5957 5956 5956 5956 5956 5955 5955 5955 5955 5955 5954 5954 5954 5954 5953 5952 5952 5950 5949 5948 5948 5949 5947 5945 5945 5945 5944 5943 5942 5941 5940 5939 5938 5937 5936 5935 5933
5935 5936 5937 5938 5939 5940 5941 5942 5944 5945 5945 5946 5948 5948 5949 5950 5951 5952 5953 5954 5954 5955 5955 5955 5955 5954 5955 5955 5955 5955 5955 5956 5956 5956 5955 5955 5956 5956 5956 5956 5956 5956 5956 5956 5955 5955 5955 5954 5954 5953 5953 5953 5953 5952 5952 5952 5952 5952 5952 5952 5951 5951 5950 5950 5949 5948 5946 5945 5946 5946 5945 5943 5942 5942 5941 5940 5939 5938 5937 5936 5935 5934 5933 5932 5931
5931 5932 5933 5934 5935 5937 5937 5938 5940 5940 5940 5943 5945 5946 5947 5948 5948 5949 5949 5950 5951 5951 5952 5952 5952 5952 5952 5953 5953 5953 5953 5953 5954 5953 5953 5953 5953 5953 5953 5953 5953 5953 5953 5953 5953 5953 5952 5952 5952 5951 5950 5950 5950 5950 5949 5949 5949 5949 5949 5949 5948 5948 5948 5948 5947 5946 5944 5943 5942 5943 5943 5941 5939 5939 5939 5938 5937 5936 5934 5933 5932 5931 5930 5930 5929
5927 5927 5928 5929 5931 5933 5933 5934 5935 5935 5936 5940 5942 5943 5944 5945 5945 5946 5946 5946 5947 5948 5948 5949 5949 5950 5950 5950 5950 5950 5950 5951 5951 5951 5950 5950 5950 5950 5950 5950 5950 5949 5949 5950 5950 5950 5950 5950 5950 5949 5948 5948 5948 5947 5946 5946 5946 5946 5947 5947 5945 5945 5945 5945 5944 5943 5941 5940 5939 5939 5940 5938 5936 5936 5936 5935 5934 5933 5931 5930 5929 5928 5927 5926 5926
5921 5923 5924 5925 5926 5928 5929 5930 5931 5931 5933 5937 5938 5939 5940 5941 5942 5943 5943 5943 5944 5945 5945 5946 5946 5947 5947 5947 5947 5947 5947 5948 5948 5948 5948 5948 5947 5947 5947 5947 5947 5946 5946 5947 5947 5947 5947 5947 5947 5947 5946 5946 5945 5945 5944 5943 5943 5943 5944 5944 5942 5942 5942 5942 5941 5939 5938 5937 5935 5935 5936 5936 5934 5933 5933 5932 5931 5930 5928 5927 5926 5925 5924 5923 5922
5916 5917 5918 5919 5921 5923 5924 5926 5928 5929 5931 5934 5934 5935 5936 5937 5938 5939 5939 5940 5941 5941 5942 5943 5943 5943 5944 5944 5944 5943 5944 5945 5945 5944 5945 5945 5945 5945 5944 5944 5944 5943 5943 5943 5944 5944 5944 5943 5944 5944 5944 5943 5942 5942 5941 5940 5940 5940 5941 5941 5939 5939 5940 5939 5938 5937 5935 5934 5932 5931 5932 5933 5932 5930 5929 5929 5928 5927 5925 5924 5922 5921 5920 5919 5919
5912 5912 5912 5914 5916 5918 5920 5923 5925 5926 5928 5930 5929 5930 5931 5932 5933 5934 5935 5936 5937 5938 5938 5939 5939 5940 5940 5940 5940 5940 5941 5942 5941 5941 5941 5941 5942 5942 5942 5941 5941 5941 5941 5941 5941 5941 5941 5940 5940 5940 5940 5940 5939 5939 5938 5937 5937 5937 5938 5938 5937 5936 5936 5936 5935 5934 5933 5931 5929 5928 5929 5929 5928 5927 5926 5926 5925 5923 5922 5921 5919 5918 5917 5916 5915
5907 5907 5907 5909 5910 5912 5916 5918 5919 5920 5922 5923 5924 5925 5927 5928 5929 5931 5932 5933 5933 5934 5934 5935 5936 5936 5936 5936 5936 5937 5938 5938 5937 5937 5938 5938 5938 5939 5938 5939 5939 5939 5938 5938 5937 5937 5937 5937 5937 5937 5936 5936 5935 5935 5934 5933 5933 5933 5934 5934 5933 5933 5933 5932 5932 5931 5930 5928 5926 5925 5926 5925 5924 5923 5923 5922 5922 5921 5919 5918 5916 5914 5913 5913 5912